Temperature
19 19 19 19 23 24 24 23 23 23 23 22 22 22 22 22 22 20 17 17 17 17 17 17 17 17 17 18 18 18 18 18 18 18 18 18 17 17 17 17 17 17 17 17 17 17 17 17 17
19 19 19 21 24 24 23 23 23 23 22 21 21 22 22 20 19 18 17 17 17 17 17 17 17 17 17 18 18 17 17 17 17 17 17 17 17 17 17 17 17 17 17 17 17 17 17 17 17
19 19 20 23 24 24 23 23 23 22 22 22 21 21 21 19 18 18 17 17 17 17 17 17 17 17 17 17 17 17 17 17 17 17 17 17 17 17 17 16 16 16 17 17 17 17 17 17 17
19 20 22 24 24 24 24 23 23 23 22 22 22 21 19 18 18 17 17 17 17 17 17 17 17 17 17 17 17 17 17 17 17 17 17 16 16 16 16 16 16 16 16 16 16 17 17 17 17
19 21 23 23 23 23 24 23 23 23 23 22 21 21 19 18 17 17 17 17 17 17 16 16 17 17 17 17 17 17 17 17 16 16 16 16 16 16 16 16 16 16 16 16 16 16 16 16 17
21 23 24 23 23 23 23 22 23 23 22 21 21 21 18 18 17 17 17 17 17 17 16 16 17 17 17 17 16 16 16 16 16 16 16 16 16 16 16 16 16 16 16 16 16 16 16 16 16
22 23 23 23 23 23 23 22 23 23 22 21 21 21 18 18 17 17 17 17 17 17 17 16 16 16 16 16 16 16 16 16 16 16 16 16 16 16 16 15 15 15 15 15 16 16 16 16 16
20 23 23 23 23 22 23 22 22 22 21 20 20 21 19 17 17 17 17 17 17 17 16 16 16 16 16 16 16 16 16 16 16 16 16 16 16 15 15 15 15 15 15 15 15 16 16 16 16
20 23 22 22 23 22 22 22 21 21 21 20 19 20 19 17 17 17 17 17 17 17 17 16 16 16 16 16 16 16 16 16 16 16 16 15 15 15 15 15 15 15 15 15 15 15 15 16 16
21 22 22 22 23 23 22 22 22 22 21 20 19 18 18 17 17 18 18 18 17 17 17 17 16 16 16 16 16 16 16 15 15 15 15 15 15 15 15 15 15 15 15 15 15 15 15 16 16
22 22 21 21 21 22 22 22 21 22 22 21 19 18 18 17 18 18 18 18 17 17 17 17 16 16 16 16 16 16 16 16 16 15 15 15 15 15 15 15 15 15 15 15 15 15 15 16 16
22 21 21 21 21 21 22 22 21 21 21 20 19 18 18 18 18 18 18 18 17 17 17 17 17 17 16 16 16 16 16 16 16 15 15 15 15 15 15 15 15 15 15 15 15 15 15 16 16
22 21 21 21 21 21 21 21 21 20 20 19 19 18 18 19 19 18 18 18 17 17 17 17 17 17 17 16 16 16 16 16 16 15 15 15 15 15 15 15 14 15 15 15 15 15 15 15 16
21 21 21 21 21 21 21 21 21 20 19 19 19 19 19 18 18 18 18 18 18 17 17 17 17 16 16 16 16 16 16 15 15 15 15 15 15 15 14 15 14 14 14 15 15 15 15 15 15
21 22 21 21 21 21 22 22 21 20 20 19 19 19 18 18 18 18 18 18 18 17 17 17 17 16 16 16 16 16 15 15 15 15 15 15 14 15 14 14 14 14 14 15 15 15 15 15 15
22 22 21 21 21 21 22 21 21 20 20 20 19 19 19 18 18 18 18 18 18 17 17 17 17 16 16 16 16 16 15 15 15 15 15 14 14 14 14 14 14 14 14 14 14 14 15 15 15
22 22 21 21 22 22 22 21 21 20 20 20 20 19 19 19 18 18 18 18 18 17 17 17 17 16 16 16 16 15 15 15 15 14 14 14 14 14 14 14 14 14 14 14 14 14 15 15 15
22 22 22 21 21 22 22 21 21 20 20 20 20 20 19 19 19 18 18 18 17 17 17 17 17 16 16 16 16 15 15 15 15 14 14 14 14 14 14 14 14 14 14 14 14 14 14 14 14
22 22 22 21 21 22 22 21 21 20 20 20 20 20 20 19 18 18 18 18 18 17 17 17 17 16 16 16 16 15 15 15 15 14 14 14 14 14 14 14 14 14 14 14 14 14 14 14 14
22 22 21 21 21 22 22 21 21 21 20 20 20 20 20 19 19 18 18 18 18 17 17 17 17 16 16 16 16 15 15 15 15 14 14 14 14 14 14 14 14 14 14 14 14 14 14 14 14
22 22 22 21 21 21 21 21 21 21 20 20 20 20 19 19 19 18 18 18 18 18 17 17 17 17 16 16 16 16 15 15 15 14 14 14 14 14 14 14 14 14 14 14 14 14 14 14 14
21 22 22 21 21 21 22 21 21 21 21 21 20 20 19 19 18 18 18 18 18 18 17 17 17 17 16 16 16 16 15 15 15 15 14 14 14 14 14 14 14 14 14 14 14 14 14 14 14
22 22 22 22 22 22 22 22 22 22 21 21 21 20 19 19 18 18 18 18 18 18 17 17 17 17 16 16 16 16 15 15 15 15 14 14 14 14 14 14 14 14 14 14 14 14 14 14 14
21 21 21 21 22 21 22 22 22 22 22 22 22 20 20 19 18 18 18 18 18 18 17 17 17 17 17 16 16 16 15 15 15 15 15 14 14 14 14 14 14 14 14 14 14 14 14 14 14
22 21 21 21 21 21 22 22 22 23 23 22 22 21 20 19 18 18 18 17 18 18 17 17 17 17 17 16 16 16 16 15 15 15 15 15 14 14 14 14 14 14 14 14 14 14 14 14 14
22 22 21 21 21 22 21 22 23 22 21 21 21 20 19 19 18 18 18 17 18 17 17 17 17 17 16 16 16 16 16 15 15 15 15 15 15 14 14 14 14 14 14 14 14 14 14 14 14
22 22 22 22 22 22 22 23 22 22 21 21 21 20 19 19 18 18 18 17 17 17 17 17 17 17 16 16 16 16 16 15 15 15 15 15 15 14 14 14 14 14 14 14 14 14 14 14 13
22 22 22 22 21 22 22 23 23 22 22 22 21 20 19 18 18 18 18 17 17 17 17 17 17 16 16 16 16 16 16 15 15 15 15 15 14 14 14 14 14 14 14 14 14 14 14 14 14
22 22 22 23 23 22 22 23 23 23 22 22 21 20 19 18 18 18 17 17 17 17 17 17 16 16 16 16 16 16 15 15 15 15 15 15 14 14 14 14 14 14 14 14 14 14 13 13 13
23 23 23 23 23 23 23 23 22 22 22 21 21 20 19 18 18 17 17 17 17 17 17 17 16 16 16 16 16 15 15 15 15 15 15 14 14 14 14 14 14 14 14 14 13 13 13 13 13
Wind_Speed
2 2 2 3 3 2 4 4 3 4 3 4 5 5 5 6 4 5 5 7 8 8 10 11 12 12 13 13 13 13 12 12 12 12 11 10 10 10 9 8 8 7 8 7 7 7 6 6 5
1 2 3 3 3 4 5 4 5 5 6 5 5 5 6 6 6 7 6 8 9 10 10 12 13 13 13 13 13 13 12 12 12 12 11 10 10 9 9 8 8 7 7 7 7 6 6 6 5
1 2 2 2 1 3 5 5 6 7 5 3 4 5 5 5 5 5 7 10 11 11 11 13 13 12 12 13 13 13 13 12 12 11 11 10 9 9 9 8 8 7 7 7 7 6 6 5 5
2 2 2 1 5 5 5 6 6 7 5 4 5 6 5 5 4 8 11 11 12 11 12 13 13 13 13 13 13 13 12 12 11 11 10 9 9 8 8 8 7 7 7 7 7 6 6 6 5
2 2 2 4 5 5 4 4 4 5 4 5 6 8 6 5 10 12 11 11 12 11 12 13 13 13 13 13 12 12 11 11 10 9 9 8 8 8 7 7 7 6 6 6 6 6 6 6 5
2 2 3 5 6 5 5 4 4 6 7 7 7 8 6 7 11 11 11 10 11 10 11 12 12 12 12 12 11 11 10 10 9 8 7 7 7 7 7 6 6 6 6 5 5 5 5 5 5
1 1 3 6 6 5 5 4 4 6 7 6 4 7 7 9 10 11 10 10 10 10 10 10 11 11 11 11 10 9 9 8 7 7 7 6 7 7 6 6 6 6 6 5 5 5 5 4 4
1 1 4 5 6 5 5 5 5 5 6 5 3 5 8 11 11 11 10 9 9 9 8 8 9 8 9 9 9 8 7 7 6 6 6 5 4 4 4 4 7 6 6 5 5 4 4 4 4
2 2 4 4 4 5 5 5 4 4 6 5 4 6 11 14 13 11 10 9 8 8 8 8 7 7 7 7 7 6 6 5 3 5 4 1 4 4 3 8 7 7 6 6 5 4 3 1 2
1 2 3 3 3 5 5 5 5 5 7 7 8 11 13 13 12 11 10 9 8 8 7 7 6 6 6 5 5 4 4 4 4 5 4 4 4 4 4 5 4 5 4 2 3 2 2 4 0
1 2 3 3 3 4 5 6 4 5 6 8 11 14 13 12 11 10 9 8 7 7 6 6 6 5 4 4 4 4 4 4 4 5 5 4 4 3 3 3 2 2 2 2 1 2 2 3 2
2 3 2 3 3 3 4 5 6 5 6 8 12 14 13 12 11 9 9 7 7 7 6 5 4 4 4 4 4 3 3 4 4 5 6 5 4 4 4 3 4 4 3 3 3 3 2 3 2
4 3 4 4 5 5 7 7 7 8 9 12 13 13 12 11 10 9 8 7 7 7 6 5 3 4 4 4 3 3 4 4 5 5 5 5 4 4 4 3 4 4 4 2 2 2 3 3 3
5 6 5 4 4 5 8 7 6 7 10 12 13 12 10 9 9 8 7 7 6 6 6 5 4 3 3 3 3 3 4 3 4 5 5 5 5 4 4 4 4 4 4 4 3 3 2 2 2
7 7 6 3 3 4 6 6 6 8 10 11 11 10 9 8 8 7 7 6 6 6 6 5 4 3 3 3 3 3 3 4 5 4 5 5 5 5 4 4 4 4 4 3 3 3 3 2 2
6 6 5 4 3 3 4 5 6 8 10 10 9 9 8 7 6 5 6 5 5 5 5 5 4 4 4 3 3 3 4 4 4 4 5 5 6 6 5 4 4 5 4 4 3 3 2 2 2
5 6 6 5 2 3 4 6 7 8 9 9 8 8 8 7 5 5 5 5 5 5 5 5 5 4 4 4 3 3 4 4 4 5 5 5 6 6 5 4 4 5 4 4 3 3 3 3 3
6 6 6 5 3 4 5 6 8 7 8 8 8 7 8 7 6 6 6 6 5 5 5 5 5 4 5 4 3 3 4 4 4 5 5 6 5 6 5 4 5 5 4 3 3 4 3 3 2
4 6 5 4 3 3 5 6 7 8 8 8 8 8 8 7 6 6 6 6 6 5 5 5 5 5 4 3 3 2 3 3 3 4 5 5 5 6 5 4 5 4 4 4 4 3 3 3 3
5 6 5 5 3 3 5 4 5 7 7 7 7 8 8 7 7 7 7 7 6 6 5 5 5 5 4 2 2 2 2 2 3 3 4 5 5 6 5 5 4 4 3 4 4 3 3 3 3
5 5 6 5 4 3 4 4 5 6 6 7 7 7 7 7 7 8 7 7 6 6 5 5 5 5 3 3 3 3 3 2 2 2 3 4 5 5 5 5 4 4 4 4 4 4 4 3 3
4 4 6 7 6 3 4 3 5 8 8 8 8 8 8 8 7 7 7 7 6 5 5 5 5 5 4 3 3 3 2 2 2 2 2 2 4 4 5 5 4 4 4 3 4 4 3 3 3
3 5 5 6 4 3 4 3 4 8 9 9 9 9 9 9 8 8 7 7 7 6 5 5 5 5 4 3 3 2 2 2 2 2 2 2 3 4 5 5 4 4 4 4 4 4 4 3 3
8 7 5 4 4 3 4 4 3 7 10 11 11 10 10 10 9 8 7 6 6 6 5 5 5 5 4 3 3 2 2 2 2 2 2 2 2 3 4 4 4 4 4 4 4 4 4 3 3
7 6 4 5 4 2 2 3 2 4 6 9 11 11 11 10 10 9 8 7 7 6 6 5 5 5 4 3 3 3 2 1 1 1 2 2 2 3 4 4 4 4 4 4 3 3 3 3 3
8 6 3 2 3 3 4 3 2 3 4 7 9 11 11 11 10 10 9 8 7 7 6 6 6 5 4 3 3 2 3 1 1 1 2 2 2 3 4 4 4 4 3 3 3 3 3 3 3
6 6 3 1 1 2 3 3 3 4 6 8 10 11 12 11 11 10 9 8 8 7 7 6 6 5 4 4 3 3 2 1 1 1 1 2 2 3 3 3 3 3 3 3 3 2 3 3 3
3 4 4 4 3 2 3 4 4 9 10 10 12 12 12 11 11 10 9 9 8 7 6 6 6 5 4 4 3 3 2 2 1 1 2 2 3 3 3 3 3 3 3 2 2 2 3 3 3
6 6 5 4 3 2 2 2 1 6 10 12 12 12 12 12 11 10 9 8 8 7 7 6 5 5 4 3 3 3 2 2 1 1 1 1 2 2 3 3 3 3 3 3 2 3 3 3 3
6 6 7 5 3 3 2 2 3 4 7 10 11 11 11 11 11 10 10 9 8 7 7 6 5 5 4 3 3 2 2 2 1 1 1 1 2 2 2 3 3 4 3 4 3 3 3 3 4
Wind_Direction
220 271 277 259 227 153 101 97 104 108 93 78 71 77 76 57 47 83 100 119 119 115 111 111 105 106 105 104 101 98 96 95 94 93 91 90 89 86 82 78 74 70 67 63 57 50 46 46 45
278 284 257 255 229 144 107 107 101 89 104 106 86 80 78 70 65 92 112 117 118 110 108 103 103 102 102 101 100 98 94 91 90 88 86 84 82 80 75 71 67 62 59 55 51 45 40 39 38
239 274 275 247 161 108 109 107 102 104 113 113 96 67 60 72 87 100 112 121 115 107 104 100 101 100 99 98 97 95 92 88 86 83 81 77 75 71 66 62 58 54 50 46 42 38 37 37 37
261 240 240 176 113 81 99 114 122 126 112 94 109 92 78 62 90 110 119 120 112 106 103 100 99 97 97 95 94 93 92 88 85 82 78 72 68 64 60 57 52 45 42 39 36 30 31 33 36
256 257 187 136 108 94 94 114 142 134 117 107 110 102 89 79 103 114 118 116 111 106 102 101 96 95 94 92 91 90 90 87 84 79 74 68 62 55 49 45 42 35 33 33 32 27 27 25 29
246 237 179 142 114 105 97 106 124 115 107 110 112 108 94 109 117 119 118 115 111 109 104 104 99 95 95 93 91 89 87 84 80 74 68 62 57 51 44 39 36 29 27 25 28 28 25 26 26
284 224 151 134 126 114 94 102 107 111 108 100 106 111 119 122 121 125 121 116 113 109 106 104 107 106 102 94 88 86 84 81 76 69 61 55 50 49 45 40 32 23 21 20 23 23 23 26 31
317 219 146 138 135 112 97 102 89 86 94 89 84 115 131 134 132 128 122 118 114 112 110 106 102 104 107 106 96 87 80 74 71 66 58 59 77 75 59 45 41 23 22 22 20 20 23 29 36
270 202 147 122 125 111 114 118 93 91 107 91 71 93 121 133 136 133 128 122 116 114 114 111 107 104 102 98 101 102 97 80 94 95 82 22 36 42 55 45 36 26 26 26 24 21 24 344 118
261 154 101 73 95 112 110 110 116 127 116 109 105 109 124 135 140 137 132 126 123 120 117 114 113 109 104 94 96 84 76 69 49 47 46 29 31 32 25 82 55 36 22 39 39 343 251 266 22
94 90 93 92 97 114 114 102 105 127 111 125 135 135 140 141 140 135 128 122 121 123 118 116 116 109 101 94 80 72 70 66 51 38 41 28 21 21 20 15 49 30 353 7 34 275 344 341 2
124 93 103 105 107 113 108 109 101 86 94 115 131 136 139 144 140 138 132 125 123 119 118 118 118 116 107 94 81 71 63 53 46 37 31 29 23 9 21 12 13 3 15 7 351 346 357 340 334
138 114 93 104 108 107 106 103 99 94 107 118 127 134 137 138 138 135 132 131 126 122 120 118 120 113 106 93 83 74 56 37 47 39 28 31 24 18 19 23 18 7 5 4 354 343 4 347 352
127 120 101 96 111 116 113 108 110 109 126 129 134 136 138 140 139 134 135 133 129 126 125 126 124 112 107 97 85 70 64 58 43 43 31 30 31 24 15 24 20 14 9 2 348 1 353 349 1
137 132 114 98 115 128 136 114 113 129 140 136 138 137 138 141 141 140 136 137 134 131 130 126 121 119 102 87 76 74 68 58 53 46 32 36 34 24 22 16 21 16 10 8 4 11 357 3 6
162 164 145 110 120 151 174 131 123 145 152 144 144 144 147 143 141 135 135 138 137 135 134 131 133 124 105 91 84 79 68 63 65 54 39 38 37 28 20 16 20 18 13 14 15 8 15 23 9
176 169 146 134 113 151 159 132 135 154 157 153 154 154 154 150 148 140 141 143 141 141 140 138 131 121 105 98 95 78 78 75 67 57 45 37 35 26 26 20 14 18 20 19 14 22 12 23 16
164 161 154 142 123 143 144 133 138 159 162 159 158 162 160 159 157 151 148 148 147 146 142 135 130 127 118 114 101 92 85 83 70 57 47 36 29 26 24 25 22 20 24 24 25 33 25 20 15
152 160 151 127 124 153 141 139 150 162 169 170 166 165 161 157 149 147 149 152 154 154 151 141 141 134 129 114 113 106 100 94 82 62 50 39 30 26 27 21 26 16 27 23 23 28 35 26 12
158 159 148 123 130 152 139 139 157 167 176 179 173 168 167 156 152 149 155 158 161 159 161 155 148 141 135 115 101 93 96 90 74 64 51 35 30 25 22 26 26 27 26 27 24 18 5 28 12
171 179 166 152 142 150 172 172 173 169 178 179 180 175 171 167 165 161 163 164 163 165 163 159 154 146 141 138 123 119 120 129 112 81 52 33 28 26 19 19 20 17 21 28 19 11 6 6 18
175 176 174 169 179 175 210 194 181 180 179 183 181 176 174 172 170 165 168 169 169 167 163 163 155 153 150 155 148 128 109 89 70 50 49 48 40 33 23 19 19 21 23 24 18 21 7 358 6
143 147 162 175 191 191 205 217 177 178 188 188 184 178 175 173 174 171 172 169 165 161 162 162 156 152 150 154 140 150 109 86 86 77 61 48 51 37 30 21 22 26 26 22 19 17 9 6 359
144 143 143 177 210 216 209 221 188 186 194 184 182 177 173 170 168 169 169 164 157 156 158 156 153 145 146 154 154 144 111 97 91 66 48 44 52 37 34 20 21 26 26 25 21 22 27 15 9
179 176 179 187 201 201 160 219 206 164 189 187 181 177 171 169 168 169 168 167 163 163 161 156 153 148 151 155 147 138 131 119 90 58 52 30 38 32 24 18 20 25 21 23 20 25 23 24 13
193 210 231 203 188 154 171 213 147 137 172 185 178 170 167 166 168 170 169 167 165 162 160 157 152 147 145 146 136 130 127 117 71 45 29 33 33 27 16 12 19 21 19 19 25 17 18 13 15
187 213 261 274 217 205 179 173 156 148 163 172 171 165 167 167 168 166 162 160 160 160 160 158 150 145 141 139 132 124 115 104 80 72 50 39 30 23 16 13 20 25 22 16 15 16 11 5 1
239 200 202 221 204 202 187 197 183 171 173 170 170 170 168 165 163 160 158 156 155 153 153 153 150 144 139 136 132 125 125 121 82 65 56 37 31 30 17 16 19 22 24 19 14 9 2 6 9
185 200 219 223 246 242 184 154 124 179 176 175 172 170 166 163 160 157 155 152 150 150 151 153 152 146 142 140 134 136 133 122 105 74 54 32 32 31 22 24 21 20 15 12 10 2 3 354 356
224 224 223 225 211 232 254 123 91 170 171 173 167 163 161 159 155 153 151 148 150 152 153 154 154 149 146 147 144 136 125 121 107 77 57 44 43 36 33 32 25 25 20 14 7 360 352 347 345
Height
1516 1515 1515 1516 1513 1511 1514 1514 1513 1515 1516 1519 1519 1519 1520 1522 1524 1533 1533 1532 1533 1535 1535 1536 1537 1538 1539 1539 1540 1541 1541 1541 1542 1542 1542 1543 1543 1543 1543 1543 1543 1543 1543 1543 1542 1542 1542 1541 1541
1516 1515 1517 1515 1510 1514 1517 1513 1514 1515 1518 1520 1521 1521 1522 1525 1529 1531 1532 1533 1535 1536 1537 1538 1538 1539 1540 1541 1541 1542 1542 1543 1543 1543 1543 1544 1544 1544 1544 1544 1544 1544 1543 1543 1543 1542 1542 1542 1541
1515 1515 1517 1512 1509 1512 1516 1515 1516 1518 1520 1521 1522 1524 1525 1529 1531 1533 1534 1535 1537 1538 1539 1539 1540 1541 1542 1542 1543 1543 1544 1544 1544 1544 1544 1544 1544 1544 1544 1544 1544 1544 1544 1543 1543 1543 1542 1542 1541
1517 1518 1516 1512 1513 1513 1513 1515 1517 1519 1521 1522 1523 1526 1529 1532 1533 1534 1535 1537 1539 1540 1541 1541 1542 1543 1543 1544 1544 1545 1545 1545 1545 1545 1545 1545 1545 1545 1545 1545 1545 1544 1544 1543 1543 1543 1542 1542 1541
1517 1516 1513 1513 1514 1514 1515 1517 1518 1518 1520 1523 1524 1527 1531 1534 1534 1535 1537 1539 1541 1542 1543 1543 1543 1544 1545 1545 1546 1546 1546 1546 1547 1547 1547 1546 1546 1546 1546 1545 1545 1544 1544 1543 1543 1543 1542 1542 1541
1518 1514 1513 1516 1516 1516 1517 1519 1519 1520 1522 1524 1526 1528 1534 1536 1536 1537 1539 1541 1542 1544 1545 1545 1545 1546 1547 1547 1547 1547 1547 1548 1548 1547 1547 1547 1547 1547 1546 1546 1545 1545 1544 1544 1543 1543 1542 1542 1541
1518 1513 1513 1514 1517 1518 1519 1520 1520 1521 1523 1526 1527 1529 1534 1537 1538 1539 1541 1543 1544 1545 1546 1548 1548 1548 1548 1548 1549 1549 1549 1549 1549 1549 1548 1548 1548 1547 1547 1546 1545 1545 1544 1544 1543 1543 1542 1542 1541
1518 1515 1514 1514 1517 1519 1520 1521 1523 1523 1526 1528 1529 1530 1534 1538 1539 1541 1543 1545 1546 1547 1548 1549 1550 1551 1551 1551 1550 1550 1550 1550 1550 1550 1549 1549 1548 1548 1547 1547 1545 1545 1544 1544 1543 1543 1542 1542 1541
1518 1517 1517 1517 1518 1520 1521 1522 1525 1526 1527 1530 1531 1532 1535 1538 1540 1542 1545 1546 1548 1549 1550 1551 1552 1552 1553 1553 1552 1552 1552 1552 1552 1552 1550 1550 1551 1550 1549 1547 1546 1545 1544 1544 1543 1543 1542 1542 1541
1518 1517 1519 1519 1519 1520 1522 1523 1525 1526 1528 1531 1533 1535 1537 1540 1542 1544 1546 1547 1549 1550 1552 1552 1553 1554 1554 1554 1554 1554 1554 1554 1554 1553 1552 1552 1551 1550 1549 1547 1546 1545 1545 1544 1543 1543 1543 1543 1543
1518 1519 1520 1521 1522 1522 1523 1525 1526 1526 1528 1531 1533 1536 1539 1541 1543 1545 1547 1549 1550 1552 1552 1553 1554 1555 1556 1556 1556 1556 1555 1554 1554 1554 1553 1552 1551 1551 1550 1549 1548 1547 1546 1546 1544 1544 1544 1544 1543
1520 1521 1522 1522 1523 1524 1524 1526 1527 1528 1531 1533 1535 1538 1540 1543 1545 1546 1548 1550 1551 1553 1553 1555 1556 1556 1557 1557 1557 1557 1557 1556 1555 1554 1554 1553 1552 1551 1550 1549 1548 1547 1546 1545 1545 1544 1544 1544 1544
1520 1522 1523 1524 1525 1525 1526 1527 1529 1532 1534 1535 1537 1540 1542 1544 1546 1548 1549 1551 1552 1554 1554 1555 1556 1557 1558 1558 1557 1558 1557 1557 1556 1554 1554 1553 1552 1552 1551 1550 1548 1547 1547 1546 1545 1545 1544 1544 1543
1521 1523 1524 1525 1525 1527 1527 1529 1531 1534 1536 1537 1539 1542 1543 1545 1547 1549 1550 1552 1553 1555 1556 1556 1557 1558 1558 1559 1559 1558 1557 1556 1556 1555 1555 1554 1553 1552 1551 1550 1549 1548 1547 1546 1545 1545 1544 1543 1543
1522 1523 1524 1526 1526 1527 1528 1530 1532 1535 1537 1539 1541 1543 1545 1546 1548 1549 1551 1553 1554 1556 1557 1557 1558 1558 1559 1559 1559 1558 1558 1558 1557 1556 1556 1555 1553 1553 1552 1551 1550 1548 1547 1546 1545 1545 1544 1543 1543
1521 1522 1526 1527 1527 1528 1529 1534 1534 1536 1538 1539 1542 1544 1546 1547 1549 1550 1551 1553 1555 1556 1557 1558 1558 1559 1559 1559 1559 1559 1559 1558 1557 1557 1556 1555 1554 1553 1552 1551 1550 1549 1547 1546 1545 1545 1544 1544 1543
1520 1524 1526 1528 1527 1527 1527 1532 1535 1537 1538 1540 1542 1544 1546 1547 1549 1551 1552 1554 1555 1557 1558 1559 1559 1560 1559 1559 1559 1559 1559 1558 1558 1558 1557 1556 1555 1554 1553 1551 1550 1549 1548 1547 1546 1545 1545 1544 1543
1523 1523 1525 1527 1527 1527 1528 1531 1534 1537 1538 1539 1542 1543 1545 1547 1549 1551 1552 1554 1555 1557 1558 1559 1560 1560 1560 1560 1560 1560 1560 1560 1559 1558 1557 1556 1555 1554 1553 1552 1551 1549 1549 1547 1547 1545 1545 1544 1543
1518 1522 1525 1526 1527 1527 1528 1530 1533 1536 1538 1539 1541 1543 1544 1547 1549 1551 1552 1554 1556 1557 1559 1559 1560 1560 1560 1561 1561 1561 1561 1561 1560 1559 1558 1557 1556 1554 1553 1552 1551 1550 1549 1548 1547 1547 1546 1545 1544
1520 1523 1526 1527 1527 1527 1529 1530 1531 1534 1537 1538 1540 1542 1544 1547 1549 1551 1553 1554 1556 1557 1558 1560 1560 1561 1561 1561 1562 1561 1561 1561 1560 1559 1559 1558 1556 1555 1554 1553 1552 1551 1549 1548 1548 1547 1546 1546 1545
1521 1523 1525 1527 1529 1528 1530 1532 1531 1533 1536 1538 1540 1542 1544 1546 1548 1551 1552 1554 1556 1557 1558 1559 1560 1561 1561 1562 1562 1562 1561 1562 1561 1561 1560 1558 1557 1556 1555 1554 1553 1551 1551 1549 1548 1547 1547 1546 1546
1524 1522 1523 1526 1529 1531 1530 1536 1530 1530 1533 1536 1538 1541 1543 1546 1548 1550 1552 1554 1555 1557 1558 1559 1560 1561 1562 1562 1562 1563 1563 1563 1562 1562 1560 1559 1558 1556 1555 1554 1553 1552 1551 1550 1549 1548 1547 1547 1546
1522 1523 1523 1525 1527 1529 1529 1531 1529 1527 1530 1532 1535 1538 1541 1544 1547 1549 1551 1553 1555 1557 1558 1559 1560 1561 1562 1562 1562 1563 1563 1563 1562 1562 1561 1560 1559 1557 1556 1555 1554 1553 1552 1551 1550 1549 1548 1548 1547
1523 1524 1526 1526 1526 1534 1528 1530 1530 1524 1525 1527 1532 1536 1540 1543 1546 1549 1551 1553 1555 1556 1557 1559 1560 1561 1561 1562 1563 1563 1563 1563 1563 1562 1562 1561 1560 1558 1557 1556 1555 1554 1553 1552 1550 1550 1549 1548 1547
1522 1526 1534 1536 1536 1532 1525 1527 1525 1519 1522 1525 1529 1534 1538 1542 1544 1547 1549 1551 1553 1555 1556 1558 1559 1560 1561 1562 1563 1563 1563 1563 1563 1563 1562 1561 1561 1559 1558 1557 1556 1555 1553 1552 1551 1550 1550 1549 1548
1520 1521 1530 1536 1534 1528 1527 1526 1520 1520 1523 1526 1529 1533 1537 1540 1543 1546 1548 1550 1552 1554 1556 1557 1559 1560 1561 1562 1562 1563 1563 1563 1563 1562 1562 1561 1561 1560 1558 1557 1556 1555 1554 1553 1552 1551 1550 1550 1549
1519 1519 1518 1523 1524 1527 1523 1520 1519 1521 1523 1525 1528 1532 1535 1539 1542 1545 1547 1549 1552 1554 1555 1557 1558 1559 1560 1561 1562 1562 1563 1563 1562 1562 1562 1561 1561 1560 1559 1558 1557 1556 1554 1553 1552 1552 1551 1550 1549
1517 1515 1519 1522 1530 1531 1525 1521 1517 1519 1520 1523 1526 1530 1534 1537 1541 1544 1546 1549 1551 1553 1555 1556 1558 1559 1560 1561 1561 1561 1562 1562 1562 1562 1561 1561 1560 1560 1559 1558 1557 1556 1555 1554 1553 1552 1551 1550 1549
1518 1518 1516 1516 1517 1524 1528 1522 1511 1513 1517 1520 1524 1529 1532 1536 1539 1543 1545 1548 1550 1553 1554 1556 1557 1558 1559 1560 1561 1561 1561 1561 1561 1561 1561 1560 1560 1559 1559 1558 1557 1556 1555 1554 1553 1552 1551 1550 1550
1511 1511 1512 1518 1518 1516 1519 1521 1513 1514 1517 1521 1524 1528 1532 1536 1539 1542 1545 1547 1550 1552 1554 1555 1557 1558 1559 1559 1560 1561 1561 1561 1561 1561 1560 1560 1559 1559 1558 1558 1557 1556 1555 1554 1553 1552 1551 1550 1549